| time (UTC) | temp F | wind direction | speed MPH | gust MPH | rain 1hr in | rain 24hr in | rain mn in | humidity % | barometer mb |
| 20260510164006 | 51 | 47 | 4.0 | 11.0 | 0.00 | 0.00 | 0.00 | 64 | 1015.9 |
| 20260510163504 | 51 | 23 | 4.0 | 11.0 | 0.00 | 0.00 | 0.00 | 64 | 1016.0 |
| 20260510163020 | 51 | 25 | 3.0 | 11.0 | 0.00 | 0.00 | 0.00 | 64 | 1016.1 |
| 20260510162506 | 51 | 80 | 4.0 | 10.0 | 0.00 | 0.00 | 0.00 | 62 | 1016.2 |
| 20260510162006 | 52 | 266 | 3.0 | 12.0 | 0.00 | 0.00 | 0.00 | 61 | 1016.2 |
| 20260510161515 | 52 | 46 | 4.0 | 12.0 | 0.00 | 0.00 | 0.00 | 61 | 1016.3 |
| 20260510161007 | 52 | 346 | 4.0 | 13.0 | 0.00 | 0.00 | 0.00 | 62 | 1016.4 |
| 20260510160509 | 52 | 74 | 3.0 | 13.0 | 0.00 | 0.00 | 0.00 | 63 | 1016.4 |
| 20260510160011 | 52 | 15 | 3.0 | 11.0 | 0.00 | 0.00 | 0.00 | 65 | 1016.5 |
| 20260510155508 | 52 | 38 | 4.0 | 11.0 | 0.00 | 0.00 | 0.00 | 65 | 1016.6 |
| 20260510155004 | 52 | 28 | 5.0 | 13.0 | 0.00 | 0.00 | 0.00 | 64 | 1016.6 |
| 20260510154508 | 52 | 54 | 6.0 | 13.0 | 0.00 | 0.00 | 0.00 | 64 | 1016.6 |
| 20260510154005 | 52 | 116 | 5.0 | 12.0 | 0.00 | 0.00 | 0.00 | 64 | 1016.6 |
| 20260510153507 | 52 | 46 | 4.0 | 11.0 | 0.00 | 0.00 | 0.00 | 65 | 1016.6 |
| 20260510153026 | 53 | 325 | 4.0 | 11.0 | 0.00 | 0.00 | 0.00 | 65 | 1016.7 |
| 20260510152506 | 52 | 296 | 5.0 | 15.0 | 0.00 | 0.00 | 0.00 | 65 | 1016.7 |
| 20260510152010 | 52 | 113 | 4.0 | 15.0 | 0.00 | 0.00 | 0.00 | 65 | 1016.7 |
| 20260510151522 | 52 | 77 | 4.0 | 13.0 | 0.00 | 0.00 | 0.00 | 64 | 1017.0 |
| 20260510151006 | 53 | 47 | 3.0 | 13.0 | 0.00 | 0.00 | 0.00 | 65 | 1017.0 |
| 20260510150504 | 52 | 53 | 3.0 | 12.0 | 0.00 | 0.00 | 0.00 | 67 | 1017.1 |
| 20260510150023 | 52 | 65 | 5.0 | 12.0 | 0.00 | 0.00 | 0.00 | 66 | 1017.2 |
| 20260510145514 | 52 | 61 | 4.0 | 12.0 | 0.00 | 0.00 | 0.00 | 66 | 1017.3 |
| 20260510145005 | 52 | 76 | 4.0 | 12.0 | 0.00 | 0.00 | 0.00 | 67 | 1017.3 |
| 20260510144510 | 52 | 86 | 3.0 | 12.0 | 0.00 | 0.00 | 0.00 | 66 | 1017.4 |
| 20260510144003 | 52 | 323 | 2.0 | 12.0 | 0.00 | 0.00 | 0.00 | 66 | 1017.5 |
| 20260510143507 | 53 | 80 | 4.0 | 12.0 | 0.00 | 0.00 | 0.00 | 66 | 1017.5 |
| 20260510143016 | 53 | 47 | 4.0 | 11.0 | 0.00 | 0.00 | 0.00 | 65 | 1017.6 |
| 20260510142508 | 53 | 48 | 4.0 | 13.0 | 0.00 | 0.00 | 0.00 | 65 | 1017.5 |
| 20260510142010 | 53 | 334 | 4.0 | 13.0 | 0.00 | 0.00 | 0.00 | 65 | 1017.6 |
| 20260510141513 | 53 | 32 | 4.0 | 13.0 | 0.00 | 0.00 | 0.00 | 65 | 1017.7 |
| 20260510141007 | 53 | 11 | 5.0 | 12.0 | 0.00 | 0.00 | 0.00 | 65 | 1017.7 |
| 20260510140502 | 53 | 97 | 5.0 | 12.0 | 0.00 | 0.00 | 0.00 | 65 | 1017.8 |
| 20260510140005 | 54 | 37 | 4.0 | 14.0 | 0.00 | 0.00 | 0.00 | 65 | 1017.9 |
| 20260510135502 | 54 | 42 | 5.0 | 14.0 | 0.00 | 0.00 | 0.00 | 65 | 1017.9 |
| 20260510135002 | 54 | 42 | 4.0 | 12.0 | 0.00 | 0.00 | 0.00 | 65 | 1017.9 |
| 20260510134506 | 54 | 289 | 3.0 | 15.0 | 0.00 | 0.00 | 0.00 | 67 | 1017.8 |
| 20260510134006 | 53 | 13 | 6.0 | 15.0 | 0.00 | 0.00 | 0.00 | 64 | 1017.8 |
| 20260510133504 | 55 | 71 | 5.0 | 13.0 | 0.00 | 0.00 | 0.00 | 63 | 1018.0 |
| 20260510133002 | 55 | 76 | 4.0 | 12.0 | 0.00 | 0.00 | 0.00 | 65 | 1017.9 |
| 20260510132502 | 54 | 343 | 5.0 | 14.0 | 0.00 | 0.00 | 0.00 | 67 | 1017.9 |
| 20260510132006 | 53 | 98 | 4.0 | 14.0 | 0.00 | 0.00 | 0.00 | 66 | 1018.1 |
| 20260510131502 | 53 | 351 | 6.0 | 13.0 | 0.00 | 0.00 | 0.00 | 66 | 1018.1 |
| 20260510131002 | 53 | 10 | 4.0 | 14.0 | 0.00 | 0.00 | 0.00 | 67 | 1018.0 |
| 20260510130502 | 53 | 23 | 5.0 | 14.0 | 0.00 | 0.00 | 0.00 | 67 | 1018.1 |
| 20260510130007 | 53 | 17 | 6.0 | 17.0 | 0.00 | 0.00 | 0.00 | 66 | 1018.1 |
| 20260510125503 | 53 | 123 | 5.0 | 17.0 | 0.00 | 0.00 | 0.00 | 65 | 1018.1 |
| 20260510125003 | 54 | 84 | 5.0 | 15.0 | 0.00 | 0.00 | 0.00 | 65 | 1018.2 |
| 20260510124511 | 54 | 340 | 6.0 | 15.0 | 0.00 | 0.00 | 0.00 | 65 | 1018.3 |
| 20260510124002 | 54 | 360 | 6.0 | 15.0 | 0.00 | 0.00 | 0.00 | 66 | 1018.2 |
| 20260510123503 | 53 | 5 | 5.0 | 15.0 | 0.00 | 0.00 | 0.00 | 68 | 1018.2 |
| 20260510123014 | 53 | 80 | 5.0 | 14.0 | 0.00 | 0.00 | 0.00 | 67 | 1018.2 |
| 20260510122502 | 53 | 9 | 5.0 | 14.0 | 0.00 | 0.00 | 0.00 | 67 | 1018.3 |
| 20260510122003 | 53 | 62 | 4.0 | 13.0 | 0.00 | 0.00 | 0.00 | 67 | 1018.3 |
| 20260510121509 | 53 | 297 | 4.0 | 12.0 | 0.00 | 0.00 | 0.00 | 69 | 1018.3 |
| 20260510121006 | 53 | 41 | 3.0 | 12.0 | 0.00 | 0.00 | 0.00 | 71 | 1018.4 |
| 20260510120503 | 53 | 24 | 5.0 | 12.0 | 0.00 | 0.00 | 0.00 | 71 | 1018.4 |
| 20260510120004 | 53 | 341 | 2.0 | 12.0 | 0.00 | 0.00 | 0.00 | 71 | 1018.6 |
| 20260510115502 | 53 | 13 | 3.0 | 11.0 | 0.00 | 0.00 | 0.00 | 71 | 1018.5 |
| 20260510115002 | 53 | 32 | 4.0 | 13.0 | 0.00 | 0.00 | 0.00 | 71 | 1018.5 |
| 20260510114505 | 53 | 64 | 2.0 | 16.0 | 0.00 | 0.00 | 0.00 | 72 | 1018.6 |
| 20260510114002 | 53 | 13 | 5.0 | 16.0 | 0.00 | 0.00 | 0.00 | 72 | 1018.6 |
| 20260510113504 | 53 | 48 | 4.0 | 11.0 | 0.00 | 0.00 | 0.00 | 71 | 1018.7 |
| 20260510113005 | 53 | 61 | 2.0 | 11.0 | 0.00 | 0.00 | 0.00 | 73 | 1018.7 |
| 20260510112503 | 53 | 145 | 3.0 | 16.0 | 0.00 | 0.00 | 0.00 | 72 | 1018.7 |
| 20260510112004 | 53 | 329 | 4.0 | 16.0 | 0.00 | 0.00 | 0.00 | 72 | 1018.8 |
| 20260510111515 | 53 | 98 | 3.0 | 12.0 | 0.00 | 0.00 | 0.00 | 72 | 1018.8 |
| 20260510111001 | 53 | 11 | 3.0 | 16.0 | 0.00 | 0.00 | 0.00 | 71 | 1018.9 |
| 20260510110507 | 53 | 73 | 3.0 | 16.0 | 0.00 | 0.00 | 0.00 | 71 | 1019.0 |
| 20260510110014 | 52 | 29 | 4.0 | 9.0 | 0.00 | 0.00 | 0.00 | 71 | 1019.0 |
| 20260510105503 | 52 | 265 | 3.0 | 9.0 | 0.00 | 0.00 | 0.00 | 71 | 1019.1 |
| 20260510105003 | 52 | 313 | 4.0 | 9.0 | 0.00 | 0.00 | 0.00 | 71 | 1019.1 |
| 20260510104502 | 52 | 23 | 3.0 | 11.0 | 0.00 | 0.00 | 0.00 | 72 | 1019.1 |
| 20260510104002 | 52 | 35 | 4.0 | 13.0 | 0.00 | 0.00 | 0.00 | 71 | 1019.0 |
| 20260510103502 | 52 | 352 | 5.0 | 13.0 | 0.00 | 0.00 | 0.00 | 70 | 1019.0 |
| 20260510103006 | 52 | 37 | 2.0 | 10.0 | 0.00 | 0.00 | 0.00 | 72 | 1019.0 |
| 20260510102503 | 52 | 56 | 3.0 | 10.0 | 0.00 | 0.00 | 0.00 | 72 | 1018.9 |
| 20260510102003 | 52 | 90 | 3.0 | 13.0 | 0.00 | 0.00 | 0.00 | 72 | 1019.1 |
| 20260510101508 | 52 | 5 | 5.0 | 13.0 | 0.00 | 0.00 | 0.00 | 71 | 1019.1 |
| 20260510101008 | 53 | 62 | 5.0 | 12.0 | 0.00 | 0.00 | 0.00 | 71 | 1019.1 |
| 20260510100507 | 53 | 352 | 5.0 | 12.0 | 0.00 | 0.00 | 0.00 | 70 | 1019.1 |
| 20260510100005 | 53 | 65 | 6.0 | 13.0 | 0.00 | 0.00 | 0.00 | 68 | 1019.3 |
| 20260510095505 | 53 | 313 | 4.0 | 13.0 | 0.00 | 0.00 | 0.00 | 70 | 1019.0 |
| 20260510095006 | 53 | 45 | 5.0 | 13.0 | 0.00 | 0.00 | 0.00 | 68 | 1019.2 |
| 20260510094519 | 54 | 342 | 4.0 | 14.0 | 0.00 | 0.00 | 0.00 | 68 | 1019.1 |
| 20260510094003 | 54 | 22 | 6.0 | 14.0 | 0.00 | 0.00 | 0.00 | 68 | 1019.1 |
| 20260510093507 | 55 | 79 | 5.0 | 14.0 | 0.00 | 0.00 | 0.00 | 67 | 1019.1 |
| 20260510093004 | 55 | 305 | 4.0 | 11.0 | 0.00 | 0.00 | 0.00 | 67 | 1019.2 |
| 20260510092503 | 55 | 106 | 3.0 | 14.0 | 0.00 | 0.00 | 0.00 | 68 | 1019.1 |
| 20260510092002 | 55 | 350 | 4.0 | 14.0 | 0.00 | 0.00 | 0.00 | 68 | 1019.1 |
| 20260510091520 | 55 | 87 | 2.0 | 17.0 | 0.00 | 0.00 | 0.00 | 70 | 1019.2 |
| 20260510091003 | 55 | 342 | 7.0 | 17.0 | 0.00 | 0.00 | 0.00 | 69 | 1019.2 |
| 20260510090503 | 55 | 34 | 2.0 | 14.0 | 0.00 | 0.00 | 0.00 | 70 | 1019.2 |
| 20260510090014 | 55 | 352 | 2.0 | 15.0 | 0.00 | 0.00 | 0.00 | 70 | 1019.2 |
| 20260510085506 | 55 | 66 | 6.0 | 15.0 | 0.00 | 0.00 | 0.00 | 68 | 1019.2 |
| 20260510085003 | 55 | 340 | 4.0 | 15.0 | 0.00 | 0.00 | 0.00 | 70 | 1019.2 |
| 20260510084507 | 55 | 40 | 5.0 | 15.0 | 0.00 | 0.00 | 0.00 | 70 | 1019.1 |
| 20260510084009 | 55 | 322 | 5.0 | 13.0 | 0.00 | 0.00 | 0.00 | 70 | 1019.2 |
| 20260510083510 | 55 | 149 | 6.0 | 15.0 | 0.00 | 0.00 | 0.00 | 69 | 1019.2 |
| 20260510083006 | 56 | 32 | 6.0 | 13.0 | 0.00 | 0.00 | 0.00 | 69 | 1019.2 |
| 20260510082503 | 55 | 56 | 4.0 | 12.0 | 0.00 | 0.00 | 0.00 | 70 | 1019.3 |
| 20260510082003 | 55 | 59 | 4.0 | 13.0 | 0.00 | 0.00 | 0.00 | 71 | 1019.2 |
| 20260510081522 | 54 | 43 | 3.0 | 16.0 | 0.00 | 0.00 | 0.00 | 72 | 1019.2 |
| 20260510081003 | 53 | 109 | 5.0 | 16.0 | 0.00 | 0.00 | 0.00 | 72 | 1019.3 |
| 20260510080503 | 54 | 315 | 5.0 | 16.0 | 0.00 | 0.00 | 0.00 | 72 | 1019.4 |
| 20260510080012 | 54 | 61 | 3.0 | 13.0 | 0.00 | 0.00 | 0.00 | 73 | 1019.2 |
| 20260510075503 | 54 | 22 | 3.0 | 11.0 | 0.00 | 0.00 | 0.00 | 74 | 1019.4 |
| 20260510075004 | 54 | 324 | 4.0 | 10.0 | 0.00 | 0.00 | 0.00 | 74 | 1019.3 |
| 20260510074516 | 54 | 88 | 3.0 | 10.0 | 0.00 | 0.00 | 0.00 | 75 | 1019.3 |
| 20260510074011 | 53 | 331 | 4.0 | 11.0 | 0.00 | 0.00 | 0.00 | 75 | 1019.2 |
| 20260510073502 | 53 | 352 | 3.0 | 12.0 | 0.00 | 0.00 | 0.00 | 75 | 1019.2 |
| 20260510073024 | 53 | 352 | 4.0 | 12.0 | 0.00 | 0.00 | 0.00 | 76 | 1019.2 |
| 20260510072507 | 53 | 16 | 4.0 | 12.0 | 0.00 | 0.00 | 0.00 | 78 | 1019.2 |
| 20260510072002 | 53 | 42 | 3.0 | 11.0 | 0.00 | 0.00 | 0.00 | 78 | 1019.2 |
| 20260510071517 | 53 | 59 | 3.0 | 14.0 | 0.00 | 0.00 | 0.00 | 78 | 1019.3 |
| 20260510071009 | 53 | 51 | 3.0 | 14.0 | 0.00 | 0.00 | 0.00 | 78 | 1019.1 |
| 20260510070503 | 53 | 71 | 4.0 | 14.0 | 0.00 | 0.00 | 0.00 | 78 | 1019.1 |
| 20260510070011 | 53 | 31 | 5.0 | 14.0 | 0.00 | 0.00 | 0.00 | 78 | 1019.0 |
| 20260510065503 | 52 | 32 | 3.0 | 14.0 | 0.00 | 0.00 | 0.00 | 80 | 1018.9 |
| 20260510065003 | 52 | 40 | 4.0 | 13.0 | 0.00 | 0.00 | 0.00 | 79 | 1019.0 |
| 20260510064539 | 52 | 5 | 4.0 | 13.0 | 0.00 | 0.00 | 0.00 | 80 | 1018.9 |
| 20260510064003 | 52 | 64 | 5.0 | 13.0 | 0.00 | 0.00 | 0.00 | 80 | 1018.8 |
| 20260510063507 | 52 | 22 | 3.0 | 12.0 | 0.00 | 0.00 | 0.00 | 81 | 1018.7 |
| 20260510063022 | 52 | 320 | 4.0 | 12.0 | 0.00 | 0.00 | 0.00 | 81 | 1018.7 |
| 20260510062503 | 52 | 317 | 4.0 | 13.0 | 0.00 | 0.00 | 0.00 | 81 | 1018.7 |
| 20260510062007 | 52 | 51 | 5.0 | 13.0 | 0.00 | 0.00 | 0.00 | 81 | 1018.7 |
| 20260510061535 | 52 | 58 | 4.0 | 11.0 | 0.00 | 0.00 | 0.00 | 80 | 1018.7 |
| 20260510061007 | 52 | 327 | 3.0 | 10.0 | 0.00 | 0.00 | 0.00 | 81 | 1018.6 |
| 20260510060504 | 52 | 5 | 3.0 | 12.0 | 0.00 | 0.00 | 0.00 | 82 | 1018.6 |
| 20260510060031 | 52 | 49 | 4.0 | 15.0 | 0.00 | 0.00 | 0.00 | 82 | 1018.5 |
| 20260510055507 | 52 | 65 | 4.0 | 15.0 | 0.00 | 0.00 | 0.00 | 82 | 1018.5 |
| 20260510055004 | 52 | 23 | 4.0 | 11.0 | 0.00 | 0.00 | 0.00 | 83 | 1018.4 |
| 20260510054514 | 51 | 360 | 4.0 | 8.0 | 0.00 | 0.00 | 0.00 | 83 | 1018.4 |
| 20260510054007 | 51 | 51 | 2.0 | 12.0 | 0.00 | 0.00 | 0.00 | 83 | 1018.5 |
| 20260510053508 | 51 | 111 | 4.0 | 12.0 | 0.00 | 0.00 | 0.00 | 83 | 1018.6 |
| 20260510053016 | 51 | 319 | 3.0 | 12.0 | 0.00 | 0.00 | 0.00 | 83 | 1018.5 |
| 20260510052507 | 51 | 42 | 4.0 | 12.0 | 0.00 | 0.00 | 0.00 | 83 | 1018.5 |
| 20260510052012 | 51 | 36 | 3.0 | 12.0 | 0.00 | 0.00 | 0.00 | 83 | 1018.4 |
| 20260510051509 | 51 | 49 | 2.0 | 10.0 | 0.00 | 0.00 | 0.00 | 83 | 1018.5 |
| 20260510051007 | 51 | 67 | 3.0 | 11.0 | 0.00 | 0.00 | 0.00 | 83 | 1018.6 |
| 20260510050502 | 51 | 327 | 2.0 | 11.0 | 0.00 | 0.00 | 0.00 | 84 | 1018.6 |
| 20260510050004 | 50 | 63 | 5.0 | 10.0 | 0.00 | 0.00 | 0.00 | 83 | 1018.7 |
| 20260510045506 | 50 | 83 | 2.0 | 11.0 | 0.00 | 0.00 | 0.00 | 84 | 1018.7 |
| 20260510045005 | 50 | 53 | 3.0 | 11.0 | 0.00 | 0.00 | 0.00 | 83 | 1018.7 |
| 20260510044508 | 50 | 18 | 2.0 | 10.0 | 0.00 | 0.00 | 0.00 | 83 | 1018.7 |
| 20260510044008 | 50 | 9 | 1.0 | 12.0 | 0.00 | 0.00 | 0.00 | 83 | 1018.8 |
| 20260510043508 | 50 | 36 | 4.0 | 12.0 | 0.00 | 0.00 | 0.00 | 83 | 1018.9 |
| 20260510043018 | 50 | 86 | 2.0 | 8.0 | 0.00 | 0.00 | 0.00 | 83 | 1018.9 |
| 20260510042503 | 50 | 55 | 3.0 | 6.0 | 0.00 | 0.00 | 0.00 | 83 | 1019.0 |
| 20260510042009 | 50 | 47 | 2.0 | 8.0 | 0.00 | 0.00 | 0.00 | 83 | 1018.9 |
| 20260510041521 | 50 | 297 | 2.0 | 9.0 | 0.00 | 0.00 | 0.00 | 83 | 1018.9 |
| 20260510041003 | 50 | 132 | 3.0 | 9.0 | 0.00 | 0.00 | 0.00 | 83 | 1018.9 |
| 20260510040502 | 50 | 66 | 3.0 | 9.0 | 0.00 | 0.00 | 0.00 | 83 | 1018.9 |
| 20260510040018 | 50 | 10 | 2.0 | 8.0 | 0.00 | 0.00 | 0.00 | 83 | 1018.9 |
| 20260510035506 | 50 | 333 | 2.0 | 8.0 | 0.00 | 0.00 | 0.00 | 83 | 1018.9 |
| 20260510035003 | 50 | 39 | 2.0 | 9.0 | 0.00 | 0.00 | 0.00 | 83 | 1018.9 |
| 20260510034508 | 50 | 332 | 2.0 | 8.0 | 0.00 | 0.00 | 0.00 | 82 | 1018.8 |
| 20260510034005 | 50 | 32 | 2.0 | 8.0 | 0.00 | 0.00 | 0.00 | 82 | 1018.9 |
| 20260510033503 | 50 | 50 | 2.0 | 8.0 | 0.00 | 0.00 | 0.00 | 83 | 1018.9 |
| 20260510033014 | 50 | 51 | 2.0 | 7.0 | 0.00 | 0.00 | 0.00 | 83 | 1019.1 |
| 20260510032506 | 50 | 138 | 1.0 | 8.0 | 0.00 | 0.00 | 0.00 | 84 | 1019.1 |
| 20260510032007 | 50 | 38 | 2.0 | 8.0 | 0.00 | 0.00 | 0.00 | 84 | 1019.2 |
| 20260510031510 | 50 | 49 | 2.0 | 8.0 | 0.00 | 0.00 | 0.00 | 85 | 1019.3 |
| 20260510031005 | 50 | 284 | 1.0 | 8.0 | 0.00 | 0.00 | 0.00 | 86 | 1019.3 |
| 20260510030507 | 50 | 352 | 2.0 | 8.0 | 0.00 | 0.00 | 0.00 | 86 | 1019.4 |
| 20260510030024 | 50 | 57 | 2.0 | 5.0 | 0.00 | 0.00 | 0.00 | 86 | 1019.4 |
| 20260510025504 | 50 | 360 | 2.0 | 5.0 | 0.00 | 0.00 | 0.00 | 87 | 1019.5 |
| 20260510025007 | 50 | 15 | 1.0 | 5.0 | 0.00 | 0.00 | 0.00 | 87 | 1019.5 |
| 20260510024531 | 50 | 30 | 2.0 | 6.0 | 0.00 | 0.00 | 0.00 | 87 | 1019.4 |
| 20260510024003 | 50 | 50 | 2.0 | 6.0 | 0.00 | 0.00 | 0.00 | 88 | 1019.4 |
| 20260510023503 | 50 | 5 | 2.0 | 6.0 | 0.00 | 0.00 | 0.00 | 88 | 1019.2 |
| 20260510023012 | 50 | 321 | 1.0 | 5.0 | 0.00 | 0.00 | 0.00 | 89 | 1019.2 |
| 20260510022503 | 50 | 17 | 1.0 | 4.0 | 0.00 | 0.00 | 0.00 | 89 | 1019.2 |
| 20260510022007 | 49 | 325 | 1.0 | 5.0 | 0.00 | 0.00 | 0.00 | 89 | 1019.3 |
| 20260510021515 | 49 | 329 | 1.0 | 5.0 | 0.00 | 0.00 | 0.00 | 89 | 1019.2 |
| 20260510021006 | 49 | 321 | 1.0 | 6.0 | 0.00 | 0.00 | 0.00 | 89 | 1019.2 |
| 20260510020503 | 49 | 321 | 1.0 | 6.0 | 0.00 | 0.00 | 0.00 | 89 | 1019.2 |
| 20260510020016 | 49 | 47 | 2.0 | 5.0 | 0.00 | 0.00 | 0.00 | 89 | 1019.2 |
| 20260510015509 | 49 | 331 | 2.0 | 6.0 | 0.00 | 0.00 | 0.00 | 89 | 1019.2 |
| 20260510015010 | 49 | 340 | 1.0 | 7.0 | 0.00 | 0.00 | 0.00 | 89 | 1019.2 |
| 20260510014516 | 49 | 360 | 2.0 | 7.0 | 0.00 | 0.00 | 0.00 | 89 | 1019.2 |
| 20260510014006 | 49 | 61 | 2.0 | 6.0 | 0.00 | 0.00 | 0.00 | 89 | 1019.2 |
| 20260510013507 | 49 | 55 | 1.0 | 6.0 | 0.00 | 0.00 | 0.00 | 89 | 1019.2 |
| 20260510013028 | 50 | 53 | 2.0 | 6.0 | 0.00 | 0.00 | 0.00 | 89 | 1019.2 |
| 20260510012503 | 50 | 360 | 1.0 | 8.0 | 0.00 | 0.00 | 0.00 | 89 | 1019.2 |
| 20260510012003 | 50 | 5 | 1.0 | 9.0 | 0.00 | 0.00 | 0.00 | 89 | 1019.1 |
| 20260510011512 | 50 | 323 | 2.0 | 6.0 | 0.00 | 0.00 | 0.00 | 89 | 1019.2 |
| 20260510011003 | 50 | 313 | 2.0 | 5.0 | 0.00 | 0.00 | 0.00 | 90 | 1019.2 |
| 20260510010504 | 50 | 47 | 1.0 | 11.0 | 0.00 | 0.00 | 0.00 | 90 | 1019.2 |
| 20260510010020 | 50 | 5 | 3.0 | 11.0 | 0.00 | 0.00 | 0.00 | 90 | 1019.3 |
| 20260510005507 | 50 | 30 | 1.0 | 7.0 | 0.00 | 0.00 | 0.00 | 90 | 1019.3 |
| 20260510005006 | 50 | 40 | 2.0 | 7.0 | 0.00 | 0.00 | 0.00 | 90 | 1019.1 |
| 20260510004523 | 50 | 55 | 1.0 | 5.0 | 0.00 | 0.00 | 0.00 | 90 | 1019.2 |
| 20260510004015 | 50 | 36 | 1.0 | 6.0 | 0.00 | 0.00 | 0.00 | 90 | 1019.2 |
| 20260510003509 | 50 | 16 | 1.0 | 6.0 | 0.00 | 0.00 | 0.00 | 90 | 1019.1 |
| 20260510003020 | 50 | 42 | 2.0 | 6.0 | 0.00 | 0.00 | 0.00 | 90 | 1019.2 |
| 20260510002507 | 50 | 70 | 2.0 | 7.0 | 0.00 | 0.00 | 0.00 | 90 | 1019.3 |
| 20260510002010 | 50 | 324 | 1.0 | 7.0 | 0.00 | 0.00 | 0.00 | 91 | 1019.3 |
| 20260510001516 | 50 | 36 | 1.0 | 4.0 | 0.00 | 0.00 | 0.00 | 91 | 1019.4 |
| 20260510001004 | 50 | 360 | 2.0 | 4.0 | 0.00 | 0.00 | 0.00 | 91 | 1019.5 |
| 20260510000504 | 49 | 12 | 1.0 | 4.0 | 0.00 | 0.00 | 0.00 | 91 | 1019.6 |
| 20260510000011 | 49 | 326 | 1.0 | 2.0 | 0.00 | 0.00 | 0.00 | 90 | 1019.6 |
| 20260509235503 | 49 | 319 | 1.0 | 2.0 | 0.00 | 0.00 | 0.00 | 89 | 1019.5 |
| 20260509235007 | 49 | 312 | 0.0 | 2.0 | 0.00 | 0.00 | 0.00 | 88 | 1019.6 |
| 20260509234534 | 50 | 312 | 1.0 | 2.0 | 0.00 | 0.00 | 0.00 | 87 | 1019.7 |
| 20260509234002 | 50 | 296 | 0.0 | 2.0 | 0.00 | 0.00 | 0.00 | 87 | 1019.9 |
| 20260509233507 | 51 | 297 | 0.0 | 2.0 | 0.00 | 0.00 | 0.00 | 89 | 1019.9 |
| 20260509233038 | 51 | 327 | 0.0 | 2.0 | 0.00 | 0.00 | 0.00 | 90 | 1019.9 |
| 20260509232510 | 51 | 41 | 0.0 | 3.0 | 0.00 | 0.00 | 0.00 | 90 | 1019.9 |
| 20260509232007 | 51 | 19 | 0.0 | 3.0 | 0.00 | 0.00 | 0.00 | 90 | 1019.8 |
| 20260509231529 | 51 | 46 | 1.0 | 3.0 | 0.00 | 0.00 | 0.00 | 90 | 1019.7 |
| 20260509231010 | 51 | 352 | 1.0 | 3.0 | 0.00 | 0.00 | 0.00 | 89 | 1019.7 |
| 20260509230506 | 51 | 352 | 1.0 | 4.0 | 0.00 | 0.00 | 0.00 | 89 | 1019.7 |
| 20260509230024 | 51 | 5 | 1.0 | 4.0 | 0.00 | 0.00 | 0.00 | 89 | 1019.6 |
| 20260509225507 | 51 | 38 | 1.0 | 3.0 | 0.00 | 0.00 | 0.00 | 89 | 1019.6 |
| 20260509225009 | 51 | 40 | 0.0 | 3.0 | 0.00 | 0.00 | 0.00 | 89 | 1019.5 |
| 20260509224520 | 51 | 315 | 1.0 | 4.0 | 0.00 | 0.00 | 0.00 | 89 | 1019.4 |
| 20260509224008 | 51 | 9 | 1.0 | 4.0 | 0.00 | 0.00 | 0.00 | 89 | 1019.3 |
| 20260509223508 | 51 | 22 | 1.0 | 3.0 | 0.00 | 0.00 | 0.00 | 89 | 1019.3 |
| 20260509223017 | 51 | 82 | 1.0 | 2.0 | 0.00 | 0.00 | 0.00 | 89 | 1019.3 |
| 20260509222509 | 51 | 342 | 0.0 | 2.0 | 0.00 | 0.00 | 0.00 | 89 | 1019.4 |
| 20260509222009 | 51 | 340 | 1.0 | 2.0 | 0.00 | 0.00 | 0.00 | 88 | 1019.4 |
| 20260509221527 | 51 | 346 | 0.0 | 2.0 | 0.00 | 0.00 | 0.00 | 88 | 1019.4 |
| 20260509221007 | 51 | 346 | 0.0 | 2.0 | 0.00 | 0.00 | 0.00 | 88 | 1019.4 |
| 20260509220511 | 51 | 346 | 0.0 | 2.0 | 0.00 | 0.00 | 0.00 | 88 | 1019.4 |
| 20260509220029 | 51 | 352 | 0.0 | 3.0 | 0.00 | 0.00 | 0.00 | 88 | 1019.3 |
| 20260509215510 | 51 | 321 | 0.0 | 3.0 | 0.00 | 0.00 | 0.00 | 88 | 1019.2 |
| 20260509215012 | 51 | 352 | 1.0 | 3.0 | 0.00 | 0.00 | 0.00 | 88 | 1019.2 |
| 20260509214529 | 51 | 352 | 1.0 | 5.0 | 0.00 | 0.00 | 0.00 | 88 | 1019.3 |
| 20260509214007 | 52 | 13 | 0.0 | 5.0 | 0.00 | 0.00 | 0.00 | 88 | 1019.3 |
| 20260509213512 | 52 | 317 | 0.0 | 3.0 | 0.00 | 0.00 | 0.00 | 88 | 1019.3 |
| 20260509213022 | 52 | 59 | 0.0 | 3.0 | 0.00 | 0.00 | 0.00 | 88 | 1019.2 |
| 20260509212506 | 52 | 48 | 1.0 | 3.0 | 0.00 | 0.00 | 0.00 | 88 | 1019.2 |
| 20260509212014 | 52 | 52 | 1.0 | 3.0 | 0.00 | 0.00 | 0.00 | 88 | 1019.3 |
| 20260509211522 | 52 | 42 | 1.0 | 4.0 | 0.00 | 0.00 | 0.00 | 87 | 1019.3 |
| 20260509211008 | 52 | 29 | 0.0 | 4.0 | 0.00 | 0.00 | 0.00 | 88 | 1019.3 |
| 20260509210509 | 52 | 49 | 1.0 | 3.0 | 0.00 | 0.00 | 0.00 | 87 | 1019.3 |
| 20260509210025 | 52 | 12 | 0.0 | 2.0 | 0.00 | 0.00 | 0.00 | 87 | 1019.3 |
| 20260509205507 | 52 | 360 | 1.0 | 2.0 | 0.00 | 0.00 | 0.00 | 87 | 1019.4 |
| 20260509205011 | 52 | 24 | 0.0 | 4.0 | 0.00 | 0.00 | 0.00 | 87 | 1019.4 |
| 20260509204533 | 52 | 47 | 1.0 | 4.0 | 0.00 | 0.00 | 0.00 | 87 | 1019.3 |
| 20260509204009 | 52 | 65 | 1.0 | 4.0 | 0.00 | 0.00 | 0.00 | 87 | 1019.3 |
| 20260509203514 | 52 | 29 | 1.0 | 4.0 | 0.00 | 0.00 | 0.00 | 86 | 1019.3 |
| 20260509203036 | 52 | 75 | 0.0 | 3.0 | 0.00 | 0.00 | 0.00 | 86 | 1019.3 |
| 20260509202506 | 52 | 51 | 1.0 | 4.0 | 0.00 | 0.00 | 0.00 | 86 | 1019.3 |
| 20260509202008 | 52 | 16 | 1.0 | 4.0 | 0.00 | 0.00 | 0.00 | 86 | 1019.4 |
| 20260509201522 | 53 | 56 | 1.0 | 4.0 | 0.00 | 0.00 | 0.00 | 86 | 1019.2 |
| 20260509201008 | 53 | 352 | 0.0 | 4.0 | 0.00 | 0.00 | 0.00 | 85 | 1019.1 |
| 20260509200512 | 53 | 56 | 1.0 | 4.0 | 0.00 | 0.00 | 0.00 | 85 | 1019.1 |
| 20260509200026 | 53 | 53 | 1.0 | 4.0 | 0.00 | 0.00 | 0.00 | 85 | 1019.0 |
| 20260509195511 | 53 | 55 | 1.0 | 4.0 | 0.00 | 0.00 | 0.00 | 85 | 1018.9 |
| 20260509195015 | 53 | 34 | 1.0 | 3.0 | 0.00 | 0.00 | 0.00 | 85 | 1018.9 |
| 20260509194524 | 53 | 89 | 1.0 | 8.0 | 0.00 | 0.00 | 0.00 | 85 | 1018.8 |
| 20260509194009 | 53 | 37 | 1.0 | 8.0 | 0.00 | 0.00 | 0.00 | 85 | 1018.8 |
| 20260509193512 | 53 | 42 | 1.0 | 4.0 | 0.00 | 0.00 | 0.00 | 85 | 1018.8 |
| 20260509193022 | 53 | 74 | 1.0 | 5.0 | 0.00 | 0.00 | 0.00 | 85 | 1018.7 |
| 20260509192506 | 53 | 5 | 1.0 | 5.0 | 0.00 | 0.00 | 0.00 | 85 | 1018.7 |
| 20260509192012 | 54 | 78 | 1.0 | 5.0 | 0.00 | 0.00 | 0.00 | 85 | 1018.7 |
| 20260509191528 | 54 | 55 | 1.0 | 4.0 | 0.00 | 0.00 | 0.00 | 84 | 1018.6 |
| 20260509191009 | 54 | 42 | 1.0 | 4.0 | 0.00 | 0.00 | 0.00 | 84 | 1018.5 |
| 20260509190511 | 54 | 11 | 1.0 | 4.0 | 0.00 | 0.00 | 0.00 | 84 | 1018.5 |
| 20260509190029 | 54 | 111 | 1.0 | 6.0 | 0.00 | 0.00 | 0.00 | 84 | 1018.4 |
| 20260509185510 | 54 | 34 | 2.0 | 6.0 | 0.00 | 0.00 | 0.00 | 84 | 1018.4 |
| 20260509185010 | 55 | 328 | 1.0 | 4.0 | 0.00 | 0.00 | 0.00 | 84 | 1018.4 |
| 20260509184538 | 55 | 5 | 1.0 | 4.0 | 0.00 | 0.00 | 0.00 | 83 | 1018.4 |
| 20260509184010 | 55 | 58 | 1.0 | 4.0 | 0.00 | 0.00 | 0.00 | 83 | 1018.5 |
| 20260509183511 | 55 | 73 | 1.0 | 4.0 | 0.00 | 0.00 | 0.00 | 82 | 1018.5 |
| 20260509183033 | 55 | 19 | 1.0 | 5.0 | 0.00 | 0.00 | 0.00 | 82 | 1018.5 |
| 20260509182511 | 55 | 30 | 2.0 | 5.0 | 0.00 | 0.00 | 0.00 | 81 | 1018.6 |
| 20260509182010 | 56 | 44 | 1.0 | 8.0 | 0.00 | 0.00 | 0.00 | 80 | 1018.6 |
| 20260509181527 | 56 | 24 | 2.0 | 8.0 | 0.00 | 0.00 | 0.00 | 79 | 1018.6 |
| 20260509181011 | 56 | 51 | 1.0 | 6.0 | 0.00 | 0.00 | 0.00 | 78 | 1018.6 |
| 20260509180514 | 56 | 110 | 2.0 | 6.0 | 0.00 | 0.00 | 0.00 | 77 | 1018.6 |
| 20260509180024 | 57 | 62 | 2.0 | 6.0 | 0.00 | 0.00 | 0.00 | 75 | 1018.6 |
| 20260509175512 | 57 | 55 | 3.0 | 7.0 | 0.00 | 0.00 | 0.00 | 74 | 1018.6 |
| 20260509175010 | 57 | 109 | 2.0 | 7.0 | 0.00 | 0.00 | 0.00 | 74 | 1018.6 |
| 20260509174524 | 58 | 86 | 2.0 | 6.0 | 0.00 | 0.00 | 0.00 | 74 | 1018.7 |
| 20260509174007 | 58 | 119 | 2.0 | 5.0 | 0.00 | 0.00 | 0.00 | 73 | 1018.6 |
| 20260509173520 | 58 | 56 | 2.0 | 8.0 | 0.00 | 0.00 | 0.00 | 73 | 1018.5 |
| 20260509173030 | 58 | 350 | 3.0 | 8.0 | 0.00 | 0.00 | 0.00 | 73 | 1018.5 |
| 20260509172509 | 59 | 102 | 1.0 | 6.0 | 0.00 | 0.00 | 0.00 | 73 | 1018.5 |
| 20260509172011 | 59 | 37 | 2.0 | 6.0 | 0.00 | 0.00 | 0.00 | 73 | 1018.4 |
| 20260509171535 | 59 | 38 | 2.0 | 4.0 | 0.00 | 0.00 | 0.00 | 74 | 1018.4 |
| 20260509171014 | 59 | 66 | 2.0 | 8.0 | 0.00 | 0.00 | 0.00 | 74 | 1018.4 |
| 20260509170508 | 59 | 78 | 2.0 | 8.0 | 0.00 | 0.00 | 0.00 | 73 | 1018.4 |
| 20260509170027 | 59 | 9 | 3.0 | 8.0 | 0.00 | 0.00 | 0.00 | 73 | 1018.5 |
| 20260509165508 | 59 | 329 | 3.0 | 8.0 | 0.00 | 0.00 | 0.00 | 72 | 1018.5 |
| 20260509165007 | 59 | 12 | 2.0 | 8.0 | 0.00 | 0.00 | 0.00 | 73 | 1018.5 |
| 20260509164527 | 59 | 45 | 3.0 | 8.0 | 0.00 | 0.00 | 0.00 | 72 | 1018.6 |